Weather in Zabarivka

Ukraine / Chernihiv Region     51°40′54″N   32°05′22″E
temp.,
°C
wind,
m/s
gust,
m/s
humid.,
%
clouds,
%
prec.,
mm/h
press.,
hPa
HPBL,
m
14 august, sun
sun1400:00+22e6136293 0.0 1015406
03:00+19ene4968100 0.0 1015178
06:00+20e4116377 0.0 1015267
09:00+24e6125729 0.0 1015447
12:00+29e784422 0.0 10151403
15:00+28e7945100 0.0 10141418
18:00+24e6106298 0.0 1014475
21:00+21ene61472100 0.0 1014384
15 august, mon
mon1500:00+21ene51367100 0.0 1013375
03:00+21ene51265100 0.0 1013379
06:00+20ene51361100 0.0 1013332
09:00+23ene6115570 0.0 1013396
12:00+29e7103869 0.0 1012937
15:00+29ese6942100 0.0 10121332
18:00+26ne41053100 0.0 1011238
21:00+25ne5144799 0.0 1010466
16 august, tue
tue1600:00+26ene7164183 0.0 1009564
03:00+26e81837100 0.0 1009596
06:00+26ese81738100 0.0 1009746
09:00+25ese51054100 0.0 1010533
12:00+26e81349100 0.0 1010859
15:00+26ese71244100 0.0 10111114
18:00+21se3770100 0.0 1011293
21:00+20ese41172100 0.0 1012673
17 august, wed
wed1700:00+19ese4117671 0.0 1012303
03:00+19ne2274100 0.1 101148
06:00+18ne3569100 0.2 1010102
09:00+22e575787 0.2 1010437
12:00+27ese564461 0.0 10101044
15:00+30ese564038 0.0 10091672
18:00+29e474354 0.0 1009689
21:00+20w598999 0.1 1011219
18 august, thu
thu1800:00+20nne3583100 0.0 1010106
03:00+19ne3767100 0.0 1009150
06:00+17ne376799 0.0 1009120
09:00+22ene465591 0.0 1009404
12:00+28e45420 0.0 10091018
15:00+30ene6640100 0.0 10091575
18:00+28ene57442 0.0 10091000
21:00+22ne48635 0.0 1010153